Dauntless Aviation
Airports Europe Germany
EDSW

Altdorf-Wallburg Airport

Altdorf, GERMANY

Airport Info
Suggest Updated Information for this Airport

Location

Latitude / Longitude: 48°16'12"N / 7°50'30"E
  48°16.2'N / 7°50.514'E
  48.2700 / 7.8419
Satellite photo at:
Airport distance calculator
From:
Weather Reports

METAR

EDTL
5.8nm NW
EDTL 181250Z 24004KT 190V320 CAVOK 23/11 Q1023
LFST
18.2nm NW
LFST 181300Z AUTO VRB03KT 9999 OVC060 24/14 Q1022 NOSIG
LFGA
22.2nm SW
LFGA 181300Z AUTO 07003KT 020V110 9999 FEW054 OVC068 24/13 Q1022
EDSB
32.3nm N
EDSB 181250Z 28004KT 240V350 CAVOK 23/11 Q1022

TAF

EDTL
5.8nm NW
TAF EDTL 181100Z 1812/1821 28004KT 9999 FEW045
LFST
18.2nm NW
TAF LFST 181100Z 1812/1912 VRB04KT 9999 SCT045 BKN060
EDSB
32.3nm N
TAF EDSB 181100Z 1812/1912 25004KT 9999 FEW045
Safelog

 

Dauntless Aviation

© 2007-2018 Dauntless Aviation, all rights reserved
Information provided via PilotNav comes from a variety of official and unofficial data sources. As errors are possible, do not use PilotNav for primary flight planning purposes. Verify any information that you receive via PilotNav with current and canonical charts and other official documents. The material in this database is subject to database copyrights held by Dauntless Aviation and may not be copied without the express permission of Dauntless Aviation - licenses for use of part of all of this data are available for purchase; enquire via the Dauntless Aviation helpdesk. A number of mechanisms and markers exist in the database to protect against and identify infringement / copyright. Automated queries against this website are stictly prohibited, and all activity is logged and analyzed.